FW3734 Weather Reports


Display with metric or nautical units.
time (UTC)temp
F
wind
direction
speed
MPH
gust
MPH
rain 1hr
in
rain 24hr
in
rain mn
in
humidity
%
barometer
mb
20260505230049 47 348 0.0 9.0 0.03 0.28 0.28 91 1009.8
20260505224547 47 333 1.0 9.0 0.03 0.28 0.28 90 1009.7
20260505223044 47 19 0.0 5.0 0.01 0.26 0.26 90 1009.2
20260505221541 47 17 0.0 4.0 0.00 0.25 0.25 90 1009.5
20260505220044 47 12 0.0 7.0 0.01 0.25 0.25 90 1009.3
20260505214540 47 29 1.0 9.0 0.01 0.25 0.25 90 1009.6
20260505213045 47 42 1.0 8.0 0.01 0.25 0.25 90 1009.6
20260505211542 47 11 3.0 9.0 0.01 0.25 0.25 89 1009.6
20260505210035 48 58 1.0 6.0 0.00 0.24 0.24 88 1010.2
20260505204535 48 42 0.0 10.0 0.00 0.24 0.24 87 1010.1
20260505203037 48 332 2.0 8.0 0.00 0.24 0.24 86 1010.1
20260505201534 48 24 6.0 15.0 0.00 0.24 0.24 86 1009.7
20260505200029 48 355 1.0 12.0 0.00 0.24 0.24 85 1010.5
20260505194528 49 11 3.0 11.0 0.00 0.24 0.24 84 1010.3
20260505193026 49 342 3.0 10.0 0.00 0.24 0.24 82 1010.5
20260505191527 50 350 2.0 12.0 0.00 0.24 0.24 80 1010.2
20260505190035 51 5 6.0 14.0 0.00 0.24 0.24 78 1009.9
20260505184528 51 344 2.0 12.0 0.00 0.33 0.24 79 1009.7
20260505183026 52 75 0.0 5.0 0.00 0.33 0.24 81 1010.4
20260505181523 52 16 0.0 8.0 0.00 0.33 0.24 81 1010.3
20260505180033 52 320 0.0 13.0 0.00 0.33 0.24 80 1010.5
20260505174521 52 10 0.0 10.0 0.01 0.34 0.24 80 1010.5
20260505173019 53 283 0.0 1.0 0.01 0.34 0.24 81 1010.5
20260505171519 53 355 0.0 4.0 0.01 0.34 0.24 79 1010.5
20260505170018 54 19 0.0 5.0 0.01 0.34 0.24 77 1010.0
20260505164515 54 61 0.0 4.0 0.00 0.34 0.23 75 1009.6
20260505163015 54 22 0.0 7.0 0.00 0.34 0.23 73 1009.7
20260505161516 54 87 0.0 5.0 0.00 0.34 0.23 75 1009.6
20260505153011 53 19 0.0 11.0 0.00 0.34 0.23 79 1009.1
20260505151510 53 340 4.0 12.0 0.00 0.34 0.23 82 1009.1
20260505130111 48 91 5.0 9.0 0.07 0.32 0.21 89 1008.4
20260505124604 49 342 1.0 11.0 0.12 0.28 0.18 87 1009.9
20260505123109 49 11 4.0 14.0 0.10 0.25 0.14 87 1009.4
20260505121549 50 10 6.0 15.0 0.10 0.25 0.14 88 1009.0
20260505120054 51 21 5.0 10.0 0.10 0.25 0.14 87 1008.7
20260505114546 52 319 2.0 13.0 0.05 0.17 0.06 85 1008.8
20260505113038 53 259 1.0 12.0 0.03 0.15 0.04 85 1007.8
20260505111535 53 355 4.0 12.0 0.03 0.15 0.04 84 1007.2
20260505101518 59 17 3.0 11.0 0.01 0.12 0.01 85 1006.5
20260505100014 60 348 4.0 14.0 0.01 0.12 0.01 83 1006.0
20260505094510 63 360 0.0 10.0 0.00 0.11 0.00 76 1006.1
20260505093006 63 11 0.0 0.0 0.00 0.11 0.00 73 1005.2
20260505091505 63 92 0.0 0.0 0.00 0.11 0.00 72 1005.1
20260505090004 63 110 0.0 0.0 0.00 0.11 0.00 72 1005.1
20260505084503 64 141 0.0 0.0 0.00 0.11 0.00 72 1004.9
20260505083112 64 137 0.0 0.0 0.00 0.11 0.00 72 1005.0
20260505081603 65 87 0.0 0.0 0.00 0.11 0.00 69 1005.1
20260505074552 67 344 0.0 1.0 0.00 0.11 0.00 63 1005.7
20260505073056 67 142 0.0 0.0 0.00 0.11 0.00 63 1005.6
20260505071605 67 14 1.0 10.0 0.00 0.11 0.00 61 1005.6
20260505070051 68 12 3.0 16.0 0.00 0.11 0.00 61 1005.9
20260505064541 69 255 0.0 3.0 0.00 0.11 0.00 63 1004.5
20260505063048 69 184 0.0 4.0 0.00 0.11 0.00 62 1004.4
20260505061539 69 223 0.0 9.0 0.00 0.11 0.00 62 1004.4
20260505060053 69 225 0.0 9.0 0.00 0.11 0.00 61 1004.2
20260505054533 70 204 0.0 6.0 0.00 0.11 0.00 61 1004.1
20260505053032 70 218 0.0 6.0 0.00 0.11 0.00 60 1003.9
20260505051528 70 197 0.0 6.0 0.00 0.11 0.00 60 1003.6
20260505041526 71 214 0.0 8.0 0.00 0.11 0.11 59 1003.3
20260505040025 71 215 0.0 7.0 0.00 0.11 0.11 58 1003.7
20260505034524 72 197 0.0 3.0 0.00 0.11 0.11 57 1003.7
20260505033023 72 187 0.0 8.0 0.00 0.11 0.11 57 1003.8
20260505031522 73 196 0.0 2.0 0.00 0.11 0.11 55 1003.8
20260505030022 73 208 0.0 2.0 0.00 0.11 0.11 55 1003.7
20260505024521 73 198 0.0 2.0 0.00 0.11 0.11 55 1003.5
20260505023021 73 213 0.0 3.0 0.00 0.11 0.11 55 1003.2
20260505021521 73 209 0.0 0.0 0.00 0.11 0.11 55 1002.9
20260505020030 74 201 0.0 0.0 0.00 0.11 0.11 55 1002.6
20260505014531 74 201 0.0 0.0 0.00 0.11 0.11 54 1002.2
20260505013026 74 217 0.0 0.0 0.00 0.11 0.11 53 1002.2
20260505011524 75 207 0.0 1.0 0.00 0.11 0.11 52 1002.2
20260505010018 75 235 0.0 2.0 0.00 0.11 0.11 52 1002.0
20260505004518 76 153 0.0 2.0 0.00 0.11 0.11 51 1001.7
20260505003024 77 213 0.0 1.0 0.00 0.11 0.11 51 1001.6
20260505001515 78 214 0.0 0.0 0.00 0.11 0.11 50 1001.6
20260505000016 78 201 0.0 5.0 0.00 0.11 0.11 50 1001.6
20260504234516 79 228 0.0 5.0 0.00 0.11 0.11 49 1001.4
20260504233016 79 234 0.0 9.0 0.00 0.11 0.11 49 1001.7
20260504231510 79 218 0.0 4.0 0.00 0.11 0.11 49 1001.7